Location: Dehesa de la Cepeda
(40.6574°N, 4.3013°W)
Time: 23:02:37
(UTC+00:00)

X-37B - Visible Passes

Search period start: 13 June 2021 00:00
Search period end: 23 June 2021 00:00
Orbit: 386 x 389 km, 45.0° (Epoch: 10 June)

Date Brightness Start Highest point End Pass type
(mag) Time Alt. Az. Time Alt. Az. Time Alt. Az.
13 Jun 0.8 02:24:15 63° ESE 02:24:15 63° ESE 02:27:04 10° ENE visible
13 Jun 1.9 03:57:42 10° WNW 04:00:43 38° N 04:03:43 10° ENE visible
14 Jun 3.4 01:28:10 13° E 01:28:10 13° E 01:28:37 10° ENE visible
14 Jun 1.4 03:00:25 21° W 03:02:14 48° NNW 03:05:20 10° ENE visible
15 Jun 1.2 02:04:19 55° NE 02:04:19 55° NE 02:06:59 10° ENE visible
15 Jun 2.1 03:37:46 10° WNW 03:40:44 35° N 03:43:42 10° ENE visible
16 Jun 3.5 01:08:13 13° ENE 01:08:13 13° ENE 01:08:37 10° ENE visible
16 Jun 1.9 02:40:29 20° WNW 02:42:14 38° N 02:45:15 10° ENE visible
17 Jun 1.9 01:44:24 40° NNE 01:44:24 40° NNE 01:46:52 10° ENE visible
17 Jun 2.1 03:17:47 10° WNW 03:20:47 36° N 03:23:45 10° ENE visible
18 Jun 3.7 00:48:20 11° ENE 00:48:20 11° ENE 00:48:31 10° ENE visible
18 Jun 2.2 02:20:37 20° NW 02:22:16 35° N 02:25:14 10° ENE visible
18 Jun 1.3 03:56:06 10° WNW 03:59:15 58° NNE 04:02:23 10° E visible
19 Jun 2.5 01:24:38 31° NNE 01:24:38 31° NNE 01:26:47 10° ENE visible
19 Jun 1.8 02:57:45 10° WNW 03:00:48 43° N 03:03:50 10° E visible
20 Jun 2.1 02:01:04 25° NW 02:02:18 36° N 02:05:17 10° ENE visible
20 Jun 0.5 03:35:59 10° WNW 03:39:10 90° ENE 03:42:21 10° ESE visible
21 Jun 3.1 01:05:32 20° NE 01:05:32 20° NE 01:06:46 10° ENE visible
21 Jun 1.1 02:37:52 12° WNW 02:40:46 58° NNE 02:43:54 10° E visible
21 Jun 2.9 20:50:47 10° SSE 20:50:51 10° SSE 20:50:51 10° SSE visible
22 Jun 2.1 01:43:03 36° NE 01:43:03 36° NE 01:45:23 10° E visible
22 Jun 0.7 03:15:56 10° WNW 03:19:02 52° SSW 03:22:07 10° SE visible
22 Jun 0.9 21:27:11 10° SW 21:30:11 42° SSE 21:31:22 28° E visible
22 Jun 3.6 23:03:45 10° W 23:03:51 11° W 23:03:51 11° W visible
